Location: Artiguedieu
(43.5000°N, 0.5454°E)
Time: 19:01:56
(UTC+00:00)

Transit 2A - Pass Details

Date: 27 July 2021
Orbit: 594 x 964 km, 66.7° (Epoch: 28 September)

Event Time Altitude Azimuth Distance (km) Brightness Sun altitude
Rises 16:45:27 0° 322° (NW) 3,252 9.8 27.1°
Reaches altitude 10° 16:47:51 10° 316° (NW) 2,378 9.3 26.7°
Maximum altitude 16:53:03 44° 246° (WSW) 1,167 8.3 25.8°
Drops below altitude 10° 16:58:42 10° 176° (S) 2,585 8.7 24.7°
Sets 17:01:24 0° 170° (S) 3,563 9.3 24.2°
